Location: Maiden
(35.5760°N, 81.2120°W)
Time: 13:04:47
(UTC-04:00)

Daily predictions for brighter satellites

Satellite Brightness Start Highest point End
(mag) Time Altitude Azimuth Time Altitude Azimuth Time Altitude Azimuth
Cosmos 1459 Rocket 4.0 20:46:34 10° S 20:52:36 87° E 20:58:41 10° N
Cosmos 2151 Rocket 3.6 20:52:20 10° N 20:56:46 65° E 21:01:08 10° SSE
BREEZE-M R/B 3.3 20:54:14 10° SW 21:00:31 77° NW 21:03:47 10° NE
Cosmos 2173 Rocket 4.2 20:54:29 10° S 21:00:51 81° W 21:07:16 10° N
Spot 2 Rocket 4.3 20:57:47 10° SE 21:02:18 34° ENE 21:06:49 10° N
Cosmos 1300 Rocket 3.8 20:59:10 10° N 21:03:27 52° E 21:07:39 10° SSE
Cosmos 2082 Rocket 3.5 20:58:18 10° SW 21:03:41 46° WNW 21:09:10 10° N
Delta 7925 Rocket 4.4 20:59:59 10° SW 21:03:48 24° S 21:07:34 10° ESE
CZ-2D R/B 3.9 21:00:02 10° S 21:03:51 60° W 21:07:41 10° NNW
USA 238 DEB 3.9 20:58:47 10° SW 21:05:39 80° WNW 21:12:36 10° NNE
USA 238 3.9 20:58:54 10° SW 21:05:44 81° WNW 21:12:43 10° NNE
GPS 2-04 Rocket1 2.9 21:02:02 10° W 21:06:12 75° SSW 21:10:29 10° ESE
Delta 168 4.4 21:05:54 10° SW 21:07:55 15° S 21:09:47 10° SSE
Tiangong 2 1.1 21:05:26 10° WSW 21:08:35 87° NNW 21:11:45 10° ENE
Cosmos 2322 Rocket 4.0 21:05:26 10° NNE 21:08:57 17° NE 21:12:27 10° E
Cosmos 2061 Rocket 4.2 21:04:01 10° S 21:10:26 82° W 21:16:48 10° N
Cosmos 909 Rocket 4.3 21:07:09 10° NNW 21:13:35 89° ENE 21:21:05 10° SSE
OAO 1 Rocket 4.5 21:08:58 10° WSW 21:14:14 65° SSE 21:19:32 10° E
SL-16 R/B 3.7 21:12:49 10° N 21:17:01 21° ENE 21:21:03 10° ESE
Cosmos 1536 4.0 21:13:31 10° NNW 21:17:25 45° W 21:21:17 10° SSW
USA 186 2.0 21:14:26 10° S 21:17:31 69° W 21:20:49 10° NNW
Cosmos 2016 Rocket 4.2 21:16:33 10° S 21:22:38 77° W 21:28:47 10° N
Cosmos 1570 Rocket 4.0 21:17:43 10° S 21:22:59 66° ESE 21:28:17 10° NNE
Atlas Centaur 2 1.8 21:19:51 10° WSW 21:23:27 37° S 21:25:52 16° ESE
ATLAS CENTAUR R/B 1.7 21:22:26 10° NNW 21:27:03 77° ENE 21:31:05 14° SE
Resurs 1-3 3.6 21:25:17 10° SSE 21:29:40 85° W 21:34:04 10° NNW
Cosmos 1975 3.5 21:26:08 10° NNE 21:29:53 36° E 21:32:28 17° SE
Cosmos 1725 Rocket 4.0 21:27:33 10° S 21:33:43 87° W 21:39:57 10° N
Tsikada Rocket 4.1 21:27:32 10° N 21:33:57 68° E 21:40:19 10° SSE
Cosmos 2360 4.2 21:28:13 10° NNW 21:33:57 88° ENE 21:39:11 13° SSE
SL-24 R/B 4.4 21:29:25 10° S 21:34:14 89° W 21:39:23 10° N
NOSS 3-2 (A) 3.6 21:32:30 10° SW 21:38:17 77° WNW 21:44:41 10° NNE
USA 234 3.6 21:34:30 10° NE 21:41:03 70° NW 21:47:34 10° SW
Shenzhou-11 Module 4.4 21:40:19 10° NW 21:42:35 19° N 21:44:51 10° NE
NOSS 3-2 (C) 3.3 21:37:11 10° SSW 21:42:58 81° ESE 21:49:21 10° NNE
H-2A R/B 3.0 21:41:38 19° ESE 21:44:13 29° ENE 21:48:30 10° N
Cosmos 2346 Rocket 4.5 21:39:42 10° N 21:45:56 68° E 21:51:11 14° SSE
ERS-1 Rocket 4.1 21:47:52 20° ESE 21:50:09 28° ENE 21:54:22 10° NNE
Cosmos 1697 Rocket 4.1 21:45:12 10° NW 21:50:18 35° WSW 21:55:21 10° SSW
Cosmos 1898 Rocket 4.0 21:45:57 10° N 21:51:02 46° ENE 21:53:56 24° SE
Cosmos 1455 Rocket 4.4 21:48:41 10° NNE 21:52:04 22° ENE 21:53:03 20° E
Cosmos 2208 Rocket 4.2 21:47:02 10° SSW 21:52:13 75° WNW 21:57:24 10° NNE
SPOT 5 4.5 21:51:45 14° E 21:52:56 15° ENE 21:55:32 10° NNE
Cosmos 1814 Rocket 4.2 21:48:57 10° S 21:53:54 48° ESE 21:58:59 10° NNE
SL-08 RB Rocket 4.4 21:55:16 26° ESE 21:57:07 37° ENE 22:01:19 10° N
Cosmos 1975 Rocket 2.9 21:55:12 14° S 21:58:49 76° E 22:03:09 10° N
Cosmos 2360 Rocket 3.9 21:56:16 10° NNE 22:00:13 19° ENE 22:02:36 15° E
ATLAS CENTAUR R/B 4.0 21:55:59 10° SW 22:01:41 82° NW 22:19:25 10° NE
Okean 1 Rocket 3.6 21:58:08 10° NNW 22:02:24 56° W 22:06:01 14° S
Cosmos 1980 Rocket 2.9 21:57:42 10° NNW 22:03:10 50° WSW 22:07:51 14° S
Cosmos 1242 Rocket 2.5 22:01:06 10° N 22:04:44 64° E 22:05:47 41° SE
Terra 3.9 22:07:33 12° ENE 22:08:26 12° ENE 22:10:13 10° NE
Cosmos 1666 2.7 22:05:17 10° N 22:09:10 81° W 22:10:56 31° S
CENTAUR R/B 2.4 22:04:25 10° SSW 22:10:00 55° ESE 22:16:21 10° NE
Meteor 2-9 Rocket 4.4 22:06:08 10° N 22:11:18 49° ENE 22:13:23 32° SE
Cosmos 990 Rocket 4.2 22:08:30 10° N 22:13:36 53° ENE 22:15:32 34° SE
Lacrosse 5 rocket 4.0 22:13:51 10° NNE 22:15:02 11° NNE 22:16:11 10° NE
Cosmos 2233 Rocket 4.3 22:09:05 10° SSW 22:15:09 64° W 22:21:18 10° N
Cosmos 1743 2.8 22:12:20 10° NNW 22:16:09 71° W 22:17:40 34° S
Resurs 01 Rocket 3.6 22:12:55 10° SSW 22:16:34 25° W 22:20:13 10° NW
Cosmos 1544 Rocket 4.0 22:15:01 10° N 22:19:16 44° E 22:20:00 40° ESE
ISS -0.5 22:19:16 10° WNW 22:21:09 14° NNW 22:23:00 10° N
Helios 1A 3.8 22:22:56 33° E 22:23:15 33° ENE 22:26:59 10° N
Iridium 2 3.9 22:21:42 31° SSW 22:23:22 67° W 22:27:11 10° N
Meteor 2-4 Rocket 3.5 22:22:14 24° S 22:25:37 83° E 22:31:10 10° N
BREEZE-M DEB (TANK) 3.0 22:24:00 10° WNW 22:25:21 25° W 22:25:21 25° W
EPKM 4.4 22:25:28 10° WSW 22:26:54 13° SW 22:26:54 13° SW
Cosmos 1833 4.2 22:25:17 28° S 22:28:18 60° ESE 22:33:55 10° NNE
MetOp-A 4.2 22:26:41 31° S 22:29:21 77° WSW 22:34:44 10° NNW
Cosmos 1536 Rocket 3.7 22:31:59 49° E 22:32:08 50° E 22:36:26 10° NNE
SJ 16-02 3.0 22:31:45 10° NNE 22:35:06 21° ENE 22:35:06 21° ENE
Aureole 2 Rocket 4.0 22:33:26 10° N 22:34:51 21° NNE 22:34:51 21° NNE
Cosmos 1340 Rocket 2.8 22:38:31 61° SSW 22:39:11 83° W 22:43:16 10° N
Cosmos 2298 Rocket 3.9 22:37:35 10° NNW 22:42:54 79° ENE 22:44:06 54° SE
Tiangong 2 3.3 22:42:54 10° WNW 22:45:35 25° N 22:46:39 20° NNE
GPS 2-04 Rocket1 4.2 22:42:00 10° W 22:44:56 27° SW 22:44:56 27° SW
Cosmos 1515 3.8 22:49:22 71° N 22:49:22 71° N 22:52:50 10° N
CZ-2C R/B 4.3 22:50:39 26° ENE 22:51:06 27° ENE 22:55:38 10° NNE
Cosmos 1937 Rocket 3.6 22:47:00 10° NNW 22:52:05 65° WSW 22:53:17 49° SSW
Cosmos 292 Rocket 4.1 22:51:02 29° SW 22:53:22 62° WNW 22:58:05 10° N
Cosmos 2322 Rocket 2.4 22:47:54 10° NNW 22:53:28 64° WSW 22:55:00 45° SSW
USA 32 4.3 22:49:01 10° N 22:54:13 66° W 22:55:51 42° SSW
Cosmos 540 Rocket 3.3 22:54:43 63° S 22:55:31 79° ESE 23:00:42 10° NNE
ARGOS 4.1 22:53:02 26° SSW 22:55:31 42° W 23:00:38 10° NNW
Cosmos 1513 Rocket 4.5 22:55:40 36° SSW 22:58:20 79° W 23:04:30 10° N
Cosmos 2034 Rocket 3.8 22:56:40 47° S 22:58:34 83° E 23:04:45 10° N
OAO 1 Rocket 4.3 22:54:32 10° W 22:59:54 86° S 23:00:36 68° E
SL-16 R/B 2.7 22:55:55 10° NNW 23:01:24 51° WSW 23:02:56 40° SSW
Cosmos 841 Rocket 4.3 22:57:37 17° SW 23:01:30 50° WNW 23:06:37 10° N
Cosmos 1464 Rocket 4.3 22:59:58 27° SSW 23:03:31 65° W 23:09:52 10° N
Helios 1B rocket 2.6 22:59:45 10° NNE 23:03:23 67° N 23:03:23 67° N
CARTOSAT-1 4.2 23:05:34 45° NE 23:05:34 45° NE 23:09:05 10° N
Meteor 1-15 Rocket 4.1 23:00:38 10° N 23:06:22 76° E 23:07:01 68° SE
IGS 5A 4.2 23:07:25 44° NNE 23:07:25 44° NNE 23:10:39 10° N
Cosmos 2219 4.2 23:16:52 32° ENE 23:16:52 32° ENE 23:20:34 10° NE
Cosmos 2237 4.3 23:10:49 10° NNW 23:16:29 58° ENE 23:16:47 57° E
SPOT 1/Viking Rocket 3.6 23:19:06 62° SW 23:19:30 65° WSW 23:24:38 10° NNW
Cosmos 372 Rocket 4.2 23:15:27 10° N 23:20:07 55° NE 23:20:07 55° NE
H-2A R/B 3.5 23:22:16 23° WSW 23:23:34 26° W 23:27:42 10° NW
Cosmos 1025 Rocket 3.8 23:25:46 49° N 23:25:46 49° N 23:28:59 10° N
Landsat 7 4.1 23:27:10 63° WNW 23:27:10 63° WNW 23:31:36 10° NNW
Cosmos 1634 Rocket 4.2 23:27:48 56° E 23:27:48 56° E 23:33:52 10° NNE
ERS-1 Rocket 4.4 23:27:53 27° WSW 23:28:48 29° W 23:33:08 10° NW
SPOT 5 3.6 23:30:59 40° W 23:30:59 40° W 23:34:51 10° NNW
CZ-4C R/B 3.5 23:34:42 10° NNW 23:41:43 46° NE 23:43:41 40° E
Cosmos 2360 Rocket 2.5 23:39:02 10° NNW 23:44:22 55° W 23:44:22 55° W
Terra 2.4 23:46:26 53° NW 23:46:26 53° NW 23:50:19 10° NNW
Cosmos 1125 Rocket 3.7 23:41:09 10° NNW 23:45:40 66° NNW 23:45:40 66° NNW
Cosmos 2219 Rocket 2.9 23:44:46 10° N 23:49:36 42° NE 23:49:36 42° NE
CZ-2C R/B 2.9 23:47:10 10° NNE 23:52:08 70° NNE 23:52:08 70° NNE
Lacrosse 5 rocket 3.1 23:50:54 10° NW 23:53:13 30° NNW 23:53:13 30° NNW
